OBJECT Q, 43772

Orbit data source: Space-Track

You're viewing an Uncataloged Satellite

Recently launched and/or uncataloged satellites may have evolving metadata. Metadata may include but not limited to: Owner, Maufacturer, Bus, Motor, and Mission.

OBJECT Q, 43772 is a satellite in SSO that was launched on Mon, 03 Dec 2018 UTC via an FALCON 9 launch vehicle from the Air Force Western Test Range (AFWTR). Unknown objects in Earth's orbit typically refer to objects detected orbiting the Earth but have not yet been identified or cataloged. These objects could be anything from previously untracked satellites, spent rocket stages, debris from satellite collisions, or even natural meteoroids temporarily captured by Earth's gravity.

Loading next visibility...
Identifier
43772, 2018-099Q
Orbit
SSO
Country
Flag of TBDTBD
Related business
Manufacturer
GaTech
Mission
Non-operational Amateur Technology
Bus & Motor
CUBESAT 1.5U, Unknown motor
Mass
2 kg wet, 2 kg dry
Launch date (UTC)
2018-12-03 (7 years ago)
Launch vehicle
FALCON 9
Launch site
Air Force Western Test Range (AFWTR)
Object type
Unknown
Shape & HBR
Box + 2 Pan, 0.1 m
Radar Cross Section
0.025 m², Medium (>0.1 m² and < 1m²)

Expand to show TLE details & history
Last TLE update: 21 hours ago

TLE from 21 hours ago
0 OBJECT Q
1 43772U 18099Q   25292.12066181  .00063005  00000-0  16478-2 0  9997
2 43772  97.4575 358.5268 0002688 355.4719   4.6501 15.38520447377166
Epoch: 2025-10-19T02:53Z
TLE epoch observation values (Epoch: 2025-10-19T02:53:45.180Z)
Latitude
-0.00004°
Longitude
-72.75333°
Altitude
451.768 km
Speed
7.642 km/s
True Right ascension
23h 54m 06s
True Declination
0° 00' 00"
Sunlit
Object was in full shadow at epoch
Visualization orbit readout
Latitude
Unknown
Longitude
Unknown
Altitude
Unknown
Speed
Unknown
Apparent Right ascension
Unknown
Apparent Declination
Unknown
Sunlit
N/A
Visualization observer readout
Local Sidereal Time
18:34:03
Azimuth
Unknown
Elevation
Unknown
Doppler factor
Unknown
Orbital elements
Apogee altitude
449.262 km
Perigee altitude
445.592 km
Semi-major axis
6,825.564 km
Eccentricity
0.00027
Inclination
97.4575°
RAAN
358.5268°
Arg. of periapsis
355.4719°
True anomaly
4.6526°
Mean anomaly
4.6501°
Eccentric anomaly
4.65135°
Mean motion
3.84889 °/min
Orbital period
93.53 mins
BSTAR
0.0016478
Loading maneuver chart data...
Computing Atmospheric mass density...
Loading historical data...
Loading historical data...
Loading historical data...
Loading historical data...
Loading historical data...
Loading historical data...
Loading historical data...

Documentation

Showing up to 5 results
|